Historyczne dane pomiarowe

Dodano dane terminowe – wersja testowa.

Dane z okresu 1951-2019

Wersja bazy: 1.34 [2019-03-16, lista zmian], aktualizacja planowana na 2019-04-15

Dane meteo z obszaru Polski uzyskane na podstawie danych udostępnionych przez Instytut Meteorologii i Gospodarki Wodnej – Państwowy Instytut Badawczy.

 

Wybierz Datę:    

       

TemperaturaWilgotnośćZachmurzenieWiatrCiśnienieWidzialnośćZjawiska
 Data    tng td wb rh cc ccl cl cm ch dir g1 g2 mslp ppp      
1973-05-08 00:00:00 2.8--- 2.8 2.8100wxwx11wx--- 835.0 0.0---wx
1973-05-08 01:00:00 2.8------wxwxwx10wx--- 835.0----wxw1
1973-05-08 02:00:00 2.4------wxwxwxwx10wx--- 834.8----wx
1973-05-08 03:00:00 2.8--- 2.8 2.8100wxwxwxwx8wx--- 834.6----wxw1
1973-05-08 04:00:00 2.2------wxwxwx6wx--- 834.6----wx
1973-05-08 05:00:00 2.0------wxwx6wx--- 834.5----wxw1
1973-05-08 06:00:00 1.2--- 1.2 1.2100wxwxwx0wx--- 834.5 3.0---wxw1
1973-05-08 07:00:00 0.0------wxwx4wx--- 834.4----wxw1
1973-05-08 08:00:00 -0.2------wxwx7wx--- 833.9----wxw1
1973-05-08 09:00:00 -0.8--- -0.9 -0.899wxwx9wx--- 833.8----wxw1
1973-05-08 10:00:00 -1.2------wxwx9wx--- 833.8----wxw1
1973-05-08 11:00:00 -1.6------wxwx8wx--- 833.8----wxw1
1973-05-08 12:00:00 -1.2--- -1.4 -1.299wxwx9wx--- 833.9 9.2---wxw1
1973-05-08 13:00:00 -1.2------wxwx9wx--- 833.9----wxw1
1973-05-08 14:00:00 -1.2------wxwx7wx--- 833.9----wxw1
1973-05-08 15:00:00 -1.6--- -1.8 -1.698wxwx13wx--- 834.0----wxw1
1973-05-08 16:00:00 -1.4------wxwx13wx--- 834.3----wxw1
1973-05-08 17:00:00 -1.2------wxwx11wx--- 834.8----wxw1
1973-05-08 18:00:00 -1.2--- -1.4 -1.299wxwxwxwx13wx--- 834.8 1.6---wxw1
1973-05-08 19:00:00 -1.6------wxwxwxwx15wx--- 835.1----wx
1973-05-08 20:00:00 -1.4------wxwxwxwx12wx--- 835.5----wx
1973-05-08 21:00:00 -1.6--- -1.8 -1.698wxwxwx11wx--- 835.8----wxw1
1973-05-08 22:00:00 -1.2------wxwx7wx--- 836.0----wxw1
1973-05-08 23:00:00 -1.4------wxwx6wx--- 836.0----wxw1

 

Źródłem pochodzenia danych jest Instytut Meteorologii i Gospodarki Wodnej – Państwowy Instytut Badawczy. Dane Instytutu Meteorologii i Gospodarki Wodnej – Państwowego Instytutu Badawczego zostały przetworzone.

Dane źródłowe można odnaleźć na stronie https://dane.imgw.pl